Kenai, AK

9:30 PM AKST on December 15, 2019 (GMT -0900)
Kenai Municipal

Weather History for PAEN - November, 2019

Change the Weather History Date:

Tuesday, November 12, 2019

  Actual Average Record
Temperature  
Mean Temperature 34 °F -  
Max Temperature 39 °F 30 °F 48 °F (1967)
Min Temperature 28 °F 16 °F -12 °F (1973)
Degree Days  
Heating Degree Days 32    
Moisture  
Dew Point 26 °F    
Average Humidity 73    
Maximum Humidity 85    
Minimum Humidity 60    
Precipitation  
Precipitation 0.00 in - - ()
Sea Level Pressure  
Sea Level Pressure 29.60 in    
Wind  
Wind Speed 5 mph (NE)    
Max Wind Speed 14 mph    
Max Gust Speed -    
Visibility 10 miles    
Events      
Averages and records for this station are not official NWS values.
T = Trace of Precipitation, MM = Missing Value Source: NWS Daily Summary

Daily Weather History Graph

Daily Weather History Graph

Search for Another Location

Airport or City:

Astronomy

Nov. 12, 2019 Rise Set
Actual Time 8:58 AM AKST 4:38 PM AKST
Civil Twilight 8:09 AM AKST 5:27 PM AKST
Nautical Twilight 7:17 AM AKST 6:20 PM AKST
Astronomical Twilight 6:27 AM AKST 7:09 PM AKST
Moon 5:16 PM AKST (11/12) 8:50 AM AKST (11/12)
Length of Visible Light 9h 18m
Length of Day
7h 39m
Full, 100% of the Moon is Illuminated
Nov 12
Full
Nov 19
Last Quarter
Nov 26
New
Dec 3
First Quarter
Dec 11
Full

Hourly Weather History & Observations

Time (AKST) Temp. Windchill Dew Point Humidity Pressure Visibility Wind Dir Wind Speed Gust Speed Precip Events Conditions
12:53 AM 34.0 °F - 28.0 °F 79% 29.64 in 10.0 mi Calm Calm - N/A   Overcast
1:53 AM 34.0 °F 31.0 °F 27.0 °F 75% 29.63 in 10.0 mi North 3.5 mph - N/A   Overcast
2:53 AM 35.1 °F 29.3 °F 28.0 °F 76% 29.62 in 10.0 mi NE 6.9 mph - N/A   Overcast
3:53 AM 34.0 °F 28.8 °F 28.0 °F 79% 29.62 in 10.0 mi North 5.8 mph - N/A   Overcast
4:53 AM 34.0 °F 28.8 °F 28.0 °F 79% 29.61 in 10.0 mi NNE 5.8 mph - N/A   Overcast
5:53 AM 33.1 °F 28.7 °F 27.0 °F 78% 29.60 in 10.0 mi NE 4.6 mph - N/A   Scattered Clouds
6:53 AM 28.9 °F 22.8 °F 25.0 °F 85% 29.59 in 10.0 mi NE 5.8 mph - N/A   Clear
7:53 AM 30.0 °F 24.1 °F 26.1 °F 85% 29.60 in 10.0 mi NNE 5.8 mph - N/A   Clear
8:53 AM 30.0 °F 24.1 °F 26.1 °F 85% 29.60 in 10.0 mi North 5.8 mph - N/A   Scattered Clouds
9:53 AM 30.9 °F 27.5 °F 27.0 °F 85% 29.60 in 10.0 mi East 3.5 mph - N/A   Overcast
10:53 AM 34.0 °F - 28.0 °F 79% 29.61 in 10.0 mi Calm Calm - N/A   Overcast
11:53 AM 36.0 °F 32.1 °F 28.0 °F 73% 29.61 in 10.0 mi ENE 4.6 mph - N/A   Overcast
12:53 PM 37.0 °F 31.6 °F 28.0 °F 70% 29.60 in 10.0 mi NNE 6.9 mph - N/A   Overcast
1:53 PM 39.0 °F 34.8 °F 27.0 °F 62% 29.59 in 10.0 mi NE 5.8 mph - N/A   Clear
2:53 PM 39.9 °F 36.7 °F 27.0 °F 60% 29.59 in 10.0 mi ENE 4.6 mph - N/A   Clear
3:53 PM 37.9 °F 30.9 °F 25.0 °F 60% 29.57 in 10.0 mi NNE 10.4 mph - N/A   Clear
5:53 PM 35.1 °F 32.2 °F 24.1 °F 64% 29.58 in 10.0 mi NE 3.5 mph - N/A   Overcast
6:53 PM 35.1 °F 31.0 °F 25.0 °F 67% 29.58 in 10.0 mi NE 4.6 mph - N/A   Overcast
7:53 PM 36.0 °F 28.5 °F 26.1 °F 67% 29.57 in 10.0 mi NNE 10.4 mph - N/A   Overcast
8:53 PM 37.0 °F 31.0 °F 26.1 °F 65% 29.58 in 10.0 mi East 8.1 mph - N/A   Overcast
10:53 PM 37.0 °F 28.5 °F 25.0 °F 62% 29.56 in 10.0 mi NNE 13.8 mph - N/A   Overcast
11:53 PM 35.1 °F 26.4 °F 23.0 °F 61% 29.56 in 10.0 mi NE 12.7 mph - N/A   Partly Cloudy